Stations météo

Publicité
St. James's Park, Grande-Bretagne (3770): Température de l'air & dewpoint: 03.12.2019 12:00:00 - 09.12.2019 12:00:00 (GMT)St. James's Park, Grande-Bretagne (3770): Température de l'air -20cm & Température de l'air -100cm: 03.12.2019 12:00:00 - 09.12.2019 12:00:00 (GMT)St. James's Park, Grande-Bretagne (3770): Quantités de précipitations: 03.12.2019 12:00:00 - 09.12.2019 12:00:00 (GMT)
Date & Time tt [°C] td [°C] tt -20cm [°C] tt -100cm [°C] rr [mm]
09.12.2019 12:00:00 9,8 0,1 - - 0,0
09.12.2019 11:00:00 9,7 1,6 - - 0,0
09.12.2019 10:00:00 8,9 2,6 - - 0,0
09.12.2019 09:00:00 8,4 3,1 8,2 9,9 0,0
09.12.2019 08:00:00 8,4 3,5 - - 0,0
09.12.2019 07:00:00 8,4 4,6 - - 0,0
09.12.2019 06:00:00 8,4 5,3 - - 0,2
09.12.2019 05:00:00 7,7 5,5 - - 0,2
09.12.2019 04:00:00 7,9 4,5 - - 0,0
09.12.2019 03:00:00 7,8 4,0 - - 0,0
09.12.2019 02:00:00 7,8 4,2 - - 0,0
09.12.2019 01:00:00 7,7 5,6 - - 0,4
09.12.2019 00:00:00 7,9 3,6 - - 0,0
08.12.2019 23:00:00 7,5 3,1 - - 0,0
08.12.2019 22:00:00 6,9 2,6 - - 0,0
08.12.2019 21:00:00 7,0 2,2 - - 0,0
08.12.2019 20:00:00 7,2 2,6 - - 0,0
08.12.2019 19:00:00 7,1 3,0 - - 0,0
08.12.2019 18:00:00 7,4 3,5 - - 0,0
08.12.2019 17:00:00 7,3 3,6 - - 0,0
08.12.2019 16:00:00 7,9 3,4 - - 0,0
08.12.2019 15:00:00 9,5 2,9 - - 0,0
08.12.2019 14:00:00 10,5 2,8 - - 0,0
08.12.2019 13:00:00 10,7 4,2 - - 0,0
08.12.2019 12:00:00 10,8 4,2 - - 0,0
08.12.2019 11:00:00 11,0 5,2 - - 0,0
08.12.2019 10:00:00 10,3 5,7 - - 0,0
08.12.2019 09:00:00 10,2 5,9 8,2 9,7 0,0
08.12.2019 08:00:00 10,2 5,8 - - 0,0
08.12.2019 07:00:00 10,7 5,8 - - 0,0
08.12.2019 06:00:00 11,6 8,9 - - 0,2
08.12.2019 05:00:00 11,5 10,0 - - 0,0
08.12.2019 04:00:00 11,1 9,4 - - 0,0
08.12.2019 03:00:00 10,4 9,2 - - 1,8
08.12.2019 02:00:00 10,5 8,6 - - 0,4
08.12.2019 01:00:00 11,1 8,5 - - 0,0
08.12.2019 00:00:00 11,2 8,3 - - 0,0
07.12.2019 23:00:00 11,1 8,0 - - 0,0
07.12.2019 22:00:00 10,7 7,4 - - 0,0
07.12.2019 21:00:00 10,7 7,4 - - 0,0
07.12.2019 20:00:00 10,5 6,8 - - 0,0
07.12.2019 19:00:00 10,3 6,4 - - 0,0
07.12.2019 18:00:00 10,3 6,0 - - 0,0
07.12.2019 17:00:00 10,3 5,3 - - 0,0
07.12.2019 16:00:00 10,7 5,5 - - 0,0
07.12.2019 15:00:00 10,8 5,8 - - 0,0
07.12.2019 14:00:00 10,7 5,5 - - 0,0
07.12.2019 13:00:00 10,7 5,7 - - 0,0
07.12.2019 12:00:00 10,6 6,3 - - 0,0
07.12.2019 11:00:00 9,6 6,0 - - 0,0
07.12.2019 10:00:00 8,9 6,1 - - 0,0
07.12.2019 09:00:00 8,2 5,8 7,9 9,7 0,0
07.12.2019 08:00:00 7,0 5,1 - - 0,0
07.12.2019 07:00:00 7,5 5,1 - - 0,0
07.12.2019 06:00:00 8,1 5,3 - - 0,0
07.12.2019 05:00:00 8,9 5,4 - - 0,0
07.12.2019 04:00:00 9,2 5,3 - - 0,0
07.12.2019 03:00:00 9,4 5,6 - - 0,0
07.12.2019 02:00:00 9,2 5,7 - - 0,0
07.12.2019 01:00:00 9,0 6,0 - - 0,0
07.12.2019 00:00:00 8,1 5,5 - - 0,0
06.12.2019 23:00:00 8,7 5,7 - - 0,0
06.12.2019 22:00:00 9,2 5,7 - - 0,0
06.12.2019 21:00:00 10,0 6,1 - - 0,0
06.12.2019 20:00:00 10,5 6,8 - - 0,0
06.12.2019 19:00:00 10,6 7,0 - - 0,0
06.12.2019 18:00:00 11,0 7,6 - - 0,0
06.12.2019 17:00:00 11,2 8,3 - - 0,0
06.12.2019 16:00:00 11,9 9,3 - - 0,6
06.12.2019 15:00:00 12,5 8,9 - - 0,0
06.12.2019 14:00:00 13,3 8,6 - - 0,0
06.12.2019 13:00:00 13,2 10,7 - - 0,0
06.12.2019 12:00:00 12,6 11,0 - - 0,0
06.12.2019 11:00:00 12,4 11,0 - - 0,0
06.12.2019 10:00:00 11,9 11,0 - - 0,4
06.12.2019 09:00:00 12,0 10,7 7,2 9,9 0,0
06.12.2019 08:00:00 11,7 10,6 - - 1,4
06.12.2019 07:00:00 11,3 10,3 - - 2,8
06.12.2019 06:00:00 11,8 9,9 - - 0,0
06.12.2019 05:00:00 11,3 9,8 - - 0,2
06.12.2019 04:00:00 10,9 9,8 - - 0,2
06.12.2019 03:00:00 10,8 9,5 - - 0,2
06.12.2019 02:00:00 10,7 9,2 - - 0,2
06.12.2019 01:00:00 10,5 8,8 - - 0,0
06.12.2019 00:00:00 10,6 7,9 - - 0,0
05.12.2019 23:00:00 10,4 7,4 - - 0,0
05.12.2019 22:00:00 10,4 6,7 - - 0,0
05.12.2019 21:00:00 10,2 6,3 - - 0,0
05.12.2019 20:00:00 10,0 6,1 - - 0,0
05.12.2019 19:00:00 9,9 6,1 - - 0,0
05.12.2019 18:00:00 9,7 6,1 - - 0,0
05.12.2019 17:00:00 8,8 6,2 - - 0,0
05.12.2019 16:00:00 8,3 5,3 - - 0,0
05.12.2019 15:00:00 8,2 5,6 - - 0,0
05.12.2019 14:00:00 8,7 5,7 - - 0,0
05.12.2019 13:00:00 7,4 5,3 - - 0,0
05.12.2019 12:00:00 6,4 4,2 - - 0,0
05.12.2019 11:00:00 5,4 3,5 - - 0,0
05.12.2019 10:00:00 4,5 2,8 - - 0,0
05.12.2019 09:00:00 3,8 2,5 6,5 10,0 0,0
05.12.2019 08:00:00 2,4 1,9 - - 0,0
05.12.2019 07:00:00 1,4 0,8 - - 0,0
05.12.2019 06:00:00 2,0 1,6 - - 0,0
05.12.2019 05:00:00 1,1 0,9 - - 0,0
05.12.2019 04:00:00 0,0 -0,3 - - 0,0
05.12.2019 03:00:00 0,2 -0,1 - - 0,0
05.12.2019 02:00:00 0,9 0,6 - - 0,0
05.12.2019 01:00:00 1,4 1,1 - - 0,0
05.12.2019 00:00:00 1,2 0,8 - - 0,0
04.12.2019 23:00:00 1,9 1,5 - - 0,0
04.12.2019 22:00:00 2,1 1,7 - - 0,0
04.12.2019 21:00:00 2,1 1,4 - - 0,0
04.12.2019 20:00:00 2,9 2,1 - - 0,0
04.12.2019 19:00:00 2,9 2,0 - - 0,0
04.12.2019 18:00:00 3,2 1,9 - - 0,0
04.12.2019 17:00:00 4,3 2,1 - - 0,0
04.12.2019 16:00:00 5,2 2,1 - - 0,0
04.12.2019 15:00:00 7,2 2,5 - - 0,0
04.12.2019 14:00:00 8,1 3,1 - - 0,0
04.12.2019 13:00:00 7,9 3,5 - - 0,0
04.12.2019 12:00:00 - - - - 0,0
04.12.2019 11:00:00 7,7 4,8 - - 0,0
04.12.2019 10:00:00 4,0 3,8 - - 0,0
04.12.2019 09:00:00 2,0 1,6 7,0 10,2 0,0
04.12.2019 08:00:00 2,3 1,8 - - 0,0
04.12.2019 07:00:00 2,4 2,0 - - 0,0
04.12.2019 06:00:00 2,4 1,6 - - 0,0
04.12.2019 05:00:00 3,3 2,2 - - 0,0
04.12.2019 04:00:00 4,5 3,5 - - 0,0
04.12.2019 03:00:00 4,7 4,2 - - 0,0
04.12.2019 02:00:00 3,4 3,0 - - 0,0
04.12.2019 01:00:00 2,7 1,9 - - 0,0
04.12.2019 00:00:00 3,6 2,7 - - 0,0
03.12.2019 23:00:00 3,9 3,0 - - 0,0
03.12.2019 22:00:00 4,2 2,8 - - 0,0
03.12.2019 21:00:00 5,2 3,0 - - 0,0
03.12.2019 20:00:00 6,3 3,1 - - 0,0
03.12.2019 19:00:00 6,6 3,3 - - 0,0
03.12.2019 18:00:00 7,2 3,0 - - 0,0
03.12.2019 17:00:00 6,3 1,8 - - 0,0
03.12.2019 16:00:00 7,5 2,7 - - 0,0
03.12.2019 15:00:00 8,7 2,6 - - 0,0
03.12.2019 14:00:00 8,8 3,6 - - 0,0
03.12.2019 13:00:00 8,5 3,6 - - 0,0
03.12.2019 12:00:00 8,7 3,9 - - 0,0

tt = Température de l'air
td = dewpoint
tt -20cm = Température de l'air -20cm
tt -100cm = Température de l'air -100cm
rr = Quantités de précipitations

stations d'obs. à proximité